Location: Madrid
(40.4167°N, 3.7036°W)
Time: 20:50:40
(UTC+00:00)

ISS - Pass Details

Date: 07 July 2025
Orbit: 413 x 417 km, 51.6° (Epoch: 13 July)

Event Time Altitude Azimuth Distance (km) Brightness Sun altitude
Rises 01:36:40 0° 308° (NW) 2,358 0.3 -24.5°
Reaches altitude 10° 01:39:42 10° 338° (NNW) 1,495 -0.4 -24.3°
Maximum altitude 01:41:19 13° 7° (N) 1,330 -0.3 -24.2°
Drops below altitude 10° 01:42:57 10° 36° (NE) 1,495 0.0 -24.1°
Sets 01:45:59 0° 66° (ENE) 2,359 0.7 -23.9°
